Location: Melizzano
(41.1500°N, 14.5000°E)
Time: 03:45:01
(UTC+00:00)

Cosmos 1869 Rocket - Pass Details

Date: 11 May 2021
Orbit: 604 x 633 km, 82.5° (Epoch: 14 June)

Event Time Altitude Azimuth Distance (km) Brightness Sun altitude
Rises 20:32:46 0° 359° (N) 2,869 7.8 -21.8°
Reaches altitude 10° 20:35:05 10° 7° (N) 1,961 6.7 -22.1°
Enters shadow 20:38:57 40° 69° (ENE) 895 4.2 -22.5°
